Regional Weather Roundup
Issued by NWS

Home | Current Version | Previous Version | Text Only | Print | Product List | Glossary Off
Versions: 1 2 3 4 5 6 7 8 9 10 11 12 13 14 15 16 17 18 19 20 21 22 23 24 25 26 27 28 29 30 31 32 33 34 35 36 37 38 39 40 41 42 43 44 45 46 47 48 49 50

383
ASUS43 KLSX 242110
RWRMO

WEATHER SUMMARY FOR MISSOURI
NATIONAL WEATHER SERVICE SPRINGFIELD MO
400 PM CDT WED MAY 24 2017

NOTE: "FAIR" INDICATES FEW OR NO CLOUDS BELOW 12,000 FEET WITH NO
       SIGNIFICANT WEATHER AND/OR OBSTRUCTIONS TO VISIBILITY.
       CURRENT SKY AND/OR WEATHER CONDITIONS ARE NOT AVAILABLE FOR
       CHILLICOTHE AND FARMINGTON.

MOZ001>031-035>038-043-044-053-054-242200-
...NORTHERN AND WESTERN MISSOURI...

CITY           SKY/WX    TMP DP  RH WIND       PRES   REMARKS
KANSAS CTY INT CLOUDY    64  49  57 N12       29.68F
KANSAS C DTWN  PTSUNNY   66  49  54 N8        29.67F
LEE`S SUMMIT   PTSUNNY   64  50  60 N13       29.68F
ST JOSEPH      MOSUNNY   66  49  54 N12       29.68F
CHILLICOTHE      N/A     60  53  77 N8        29.66S
KIRKSVILLE     CLOUDY    61  51  70 NW8       29.64S

$$
MOZ066>068-077>081-088>096-101>105-242200-
...SOUTHWEST MISSOURI...

CITY           SKY/WX    TMP DP  RH WIND       PRES   REMARKS
SPRINGFIELD    CLOUDY    59  52  77 NW14G21   29.67S
JOPLIN         CLOUDY    65  49  56 NW12      29.70F
BRANSON        PTSUNNY   59  48  67 NW9       29.68S

$$
MOZ032>034-039>042-045>050-055>058-069>072-242200-
...CENTRAL MISSOURI...

CITY           SKY/WX    TMP DP  RH WIND       PRES   REMARKS
COLUMBIA       SUNNY     65  46  50 N8        29.62F
JEFFERSON CITY MOSUNNY   67  44  43 NW9       29.62S
ROLLA          CLOUDY    60  48  64 N13       29.60S
SEDALIA        MOSUNNY   67  54  63 VRB6      29.65S
WHITEMAN AFB   PTSUNNY   64  53  68 NW10      29.64F
WARRENSBURG    PTSUNNY   61  52  72 W9        29.66S
OSAGE BEACH    PTSUNNY   60  51  72 W8        29.65S

$$
MOZ051-052-059>065-242200-
...EAST CENTRAL MISSOURI...

CITY           SKY/WX    TMP DP  RH WIND       PRES   REMARKS
ST LOUIS INTL  PTSUNNY   68  47  46 N16       29.55F
SPIRIT OF STL  PTSUNNY   68  50  52 NW16G22   29.55F
ST CHARLES     PTSUNNY   68  49  50 NW14      29.55S

$$
MOZ072>076-082>087-097>100-106>115-242200-
...SOUTH CENTRAL AND SOUTHEAST MISSOURI...

CITY           SKY/WX    TMP DP  RH WIND       PRES   REMARKS
CAPE GIRARDEAU CLOUDY    65  46  50 NW14      29.54F
FARMINGTON     CLOUDY    62  48  60 NW15G21   29.58F
POPLAR BLUFF   LGT RAIN  68  51  54 NW14G20   29.57R
WEST PLAINS    PTSUNNY   64  48  56 W10G17    29.63F

$$




USA.gov is the U.S. government's official web portal to all federal, state and local government web resources and services.